[[{"header":{"parameterUnit":"m.s-1","parameterCategory":2,"la1":30.2991,"la2":30.254,"lo1":-89.0895,"lo2":-89.0444,"dy":0.0017,"dx":0.0017,"nx":28,"ny":28,"refTime":"2023-08-30T21:00:00:Z","depth":"0","parameterNumber":2,"parameterNumberName":"U-component_of_CURRENTS"},"data":[0,0,0,0,0,0,0,0,0,0,0,0,0,0,0,0,0,0,0,0,0,0,0,0,0,0,0,0,0,0,0,0,0,0,0,0,0,0,0,0,0,0,0,0,0,0,0,0,0,0,0,0,0,0,0,0,0,0,-0.2765,-0.2765,0,-0.281,-0.281,-0.2811,-0.2778,-0.2777,-0.2776,-0.2775,-0.2767,-0.2767,-0.2768,0,0,0,0,0,0,0,0,0,0,0,0,0,-0.2666,-0.2668,-0.2764,-0.2765,-0.2766,-0.281,-0.281,-0.2811,-0.2778,-0.2777,-0.2776,-0.2774,-0.2766,-0.2767,-0.2768,0,0,0,0,0,0,0,0,0,0,0,0,0,-0.2707,-0.2668,-0.2764,-0.2757,-0.2757,-0.281,-0.281,-0.2811,-0.2779,-0.2777,-0.2775,-0.2773,-0.2766,-0.2767,-0.2769,-0.2813,0,0,-0.2773,-0.2773,0,0,0,0,0,0,0,0,-0.2705,-0.2711,-0.2757,-0.2758,-0.2758,-0.2789,-0.2773,-0.281,-0.2779,-0.2768,-0.2775,-0.2773,-0.2772,-0.2773,-0.2783,-0.2813,-0.2813,-0.2773,-0.2774,-0.2774,-0.2775,0,0,0,0,0,0,0,-0.2702,-0.2709,-0.278,-0.2759,-0.2759,-0.2758,-0.2761,-0.278,-0.2777,-0.2769,-0.2767,-0.2777,-0.2771,-0.2781,-0.2782,-0.2812,-0.2773,-0.2774,-0.2775,-0.2775,-0.287,-0.2872,0,0,0,0,0,0,-0.2704,-0.2706,-0.2778,-0.2781,-0.2729,-0.2761,-0.2765,-0.2779,-0.2777,-0.2777,-0.2778,-0.2775,-0.278,-0.278,-0.2782,-0.2827,-0.2774,-0.2776,-0.2776,-0.2869,-0.2871,-0.2873,0,0,0,0,0,0,-0.2701,-0.271,-0.2777,-0.2746,-0.2755,-0.2765,-0.2781,-0.2781,-0.2783,-0.2786,-0.2783,-0.278,-0.2778,-0.278,-0.2801,-0.2826,-0.2776,-0.2777,-0.2867,-0.2869,-0.2872,-0.2922,0,0,0,0,0,0,-0.2698,-0.2709,-0.2716,-0.2747,-0.2757,-0.2811,-0.2783,-0.2783,-0.2793,-0.2789,-0.2787,-0.2784,-0.2777,-0.28,-0.2803,-0.2827,-0.2778,-0.2864,-0.2868,-0.2871,-0.2918,-0.2926,-0.2932,0,0,0,0,0,-0.2695,-0.2713,-0.2716,-0.2724,-0.2767,-0.2813,-0.2818,-0.2816,-0.2795,-0.2808,-0.2805,-0.2784,-0.2822,-0.2802,-0.2806,-0.2831,-0.2863,-0.2867,-0.2871,-0.2915,-0.2924,-0.2932,0,0,0,0,0,0,-0.2671,-0.2713,-0.2716,-0.2745,-0.2778,-0.2808,-0.2819,-0.282,-0.2829,-0.2819,-0.2808,-0.2808,-0.2836,-0.2833,-0.2811,-0.2869,-0.2839,-0.2843,-0.2871,-0.288,-0.2887,-0.2879,-0.278,0,0,0,0,0,-0.2673,-0.2695,-0.2738,-0.276,-0.2777,-0.2798,-0.2813,-0.2819,-0.2836,-0.2836,-0.2836,-0.284,-0.286,-0.2866,-0.288,-0.2916,-0.2896,-0.2934,-0.2941,-0.2947,-0.2945,-0.2944,-0.295,-0.2885,-0.2885,-0.2885,0,0,-0.2667,-0.2695,-0.2706,-0.2756,-0.2776,-0.2818,-0.2801,-0.2832,-0.2863,-0.2837,-0.2864,-0.2866,-0.2875,-0.2912,-0.2924,-0.2908,-0.2958,-0.2952,-0.2957,-0.2951,-0.2949,-0.2955,-0.296,-0.2888,-0.2887,-0.2887,0,0,-0.268,-0.2697,-0.2725,-0.276,-0.2804,-0.2828,-0.2838,-0.2874,-0.2881,-0.292,-0.2907,-0.2924,-0.2951,-0.2964,-0.2975,-0.3034,-0.2996,-0.3038,-0.3067,-0.3067,-0.3072,-0.3076,-0.306,-0.3062,-0.3041,-0.3041,-0.3041,0,-0.2671,-0.2712,-0.274,-0.2783,-0.2809,-0.2833,-0.2872,-0.2902,-0.2938,-0.295,-0.2932,-0.2974,-0.2979,-0.3025,-0.3043,-0.3049,-0.3032,-0.3031,-0.3074,-0.3078,-0.3081,-0.3064,-0.3065,-0.3044,-0.3044,-0.3043,-0.3043,0,-0.2712,-0.2745,-0.2765,-0.2827,-0.2864,-0.2899,-0.2951,-0.298,-0.2987,-0.3009,-0.3045,-0.3054,-0.3071,-0.3085,-0.3081,-0.3116,-0.3091,-0.3081,-0.3047,-0.309,-0.307,-0.3071,-0.3048,-0.3047,-0.3046,-0.3045,0,0,-0.2676,-0.2774,-0.2775,-0.2812,-0.2884,-0.2922,-0.298,-0.3037,-0.3071,-0.3094,-0.3123,-0.316,-0.3146,-0.3157,-0.3155,-0.3159,-0.3169,-0.3128,-0.3127,-0.3102,-0.3152,-0.3056,-0.3047,-0.316,-0.316,-0.3161,-0.3128,0,-0.2689,-0.277,-0.2814,-0.2885,-0.2929,-0.2977,-0.3035,-0.3091,-0.3123,-0.3162,-0.3172,-0.32,-0.3181,-0.3184,-0.3189,-0.3177,-0.3173,-0.3178,-0.3122,-0.312,-0.3021,-0.3046,-0.2925,-0.2878,-0.3129,-0.3129,-0.3129,0,-0.2697,-0.2756,-0.2822,-0.292,-0.2942,-0.2989,-0.3068,-0.3123,-0.3192,-0.3215,-0.3237,-0.3241,-0.326,-0.323,-0.322,-0.3219,-0.3186,-0.317,-0.3168,-0.3059,-0.3026,-0.2877,-0.287,-0.2837,-0.3129,-0.3129,-0.3129,0,-0.2646,-0.2751,-0.2798,-0.2831,-0.2952,-0.2983,-0.3039,-0.3124,-0.3166,-0.3232,-0.3255,-0.3281,-0.3281,-0.3258,-0.3216,-0.3218,-0.3187,-0.3186,-0.307,-0.3063,-0.2938,-0.2918,-0.2879,-0.3169,-0.3169,-0.3169,-0.3169,0,-0.263,-0.2665,-0.2778,-0.2806,-0.2864,-0.2959,-0.3015,-0.3081,-0.3164,-0.3199,-0.326,-0.3277,-0.3285,-0.3267,-0.3227,-0.3138,-0.319,-0.307,-0.3048,-0.2952,-0.2935,-0.2881,-0.2903,-0.3168,-0.3168,-0.3169,-0.3169,0,-0.2553,-0.2628,-0.2687,-0.2807,-0.2836,-0.2872,-0.2979,-0.3016,-0.3121,-0.3161,-0.3176,-0.3265,-0.3243,-0.3231,-0.3196,-0.3136,-0.3012,-0.3028,-0.2905,-0.2867,-0.2717,-0.2746,-0.2681,-0.26,-0.2898,-0.2896,-0.2894,0,-0.2518,-0.2539,-0.2648,-0.2663,-0.2706,-0.2776,-0.281,-0.2952,-0.2989,-0.3133,-0.3129,-0.3172,-0.315,-0.3084,-0.3006,-0.2915,-0.2905,-0.2746,-0.2729,-0.2684,-0.2702,-0.2726,-0.2666,-0.259,-0.2585,-0.2582,-0.2579,0,-0.2426,-0.2456,-0.2496,-0.2544,-0.2576,-0.2632,-0.2699,-0.2738,-0.2885,-0.2942,-0.3,-0.3011,-0.2981,-0.2852,-0.2758,-0.2688,-0.2668,-0.2666,-0.2657,-0.2482,-0.247,-0.2388,-0.264,-0.2546,-0.255,-0.2552,-0.2554,-0.2555,-0.2313,-0.2317,-0.2359,-0.2384,-0.2425,-0.2459,-0.2449,-0.2537,-0.2592,-0.2639,-0.277,-0.2752,-0.2713,-0.2573,-0.2494,-0.2344,-0.2429,-0.2273,-0.2321,-0.2356,-0.225,-0.2417,-0.2275,-0.2277,-0.2278,-0.2279,-0.228,0,-0.2169,-0.218,-0.2195,-0.2223,-0.2199,-0.2285,-0.2333,-0.2297,-0.2288,-0.2386,-0.2403,-0.2427,-0.2298,-0.2274,-0.2154,-0.204,-0.1993,-0.1992,-0.2013,-0.1971,-0.2136,-0.2092,-0.1857,-0.1857,-0.1857,-0.1857,-0.1857,-0.1857,-0.2084,-0.2043,-0.206,-0.1975,-0.1986,-0.191,-0.1901,-0.1879,-0.1915,-0.1916,-0.197,-0.2081,-0.2091,-0.2195,-0.2025,-0.1908,-0.1858,-0.1796,-0.1829,-0.1972,-0.2003,-0.2033,-0.1994,-0.1743,-0.1743,-0.1581,-0.158,-0.158]},{"header":{"parameterUnit":"m.s-1","parameterCategory":2,"la1":30.2991,"la2":30.254,"lo1":-89.0895,"lo2":-89.0444,"dy":0.0017,"dx":0.0017,"nx":28,"ny":28,"refTime":"2023-08-30T21:00:00:Z","depth":"0","parameterNumber":3,"parameterNumberName":"V-component_of_CURRENTS"},"data":[0,0,0,0,0,0,0,0,0,0,0,0,0,0,0,0,0,0,0,0,0,0,0,0,0,0,0,0,0,0,0,0,0,0,0,0,0,0,0,0,0,0,0,0,0,0,0,0,0,0,0,0,0,0,0,0,0,0,-0.0323,-0.0322,0,-0.0236,-0.0235,-0.0233,-0.0166,-0.0166,-0.0165,-0.0165,-0.0023,-0.0019,-0.0016,0,0,0,0,0,0,0,0,0,0,0,0,0,-0.0385,-0.0384,-0.0323,-0.0322,-0.0321,-0.0236,-0.0235,-0.0233,-0.0166,-0.0166,-0.0165,-0.0165,-0.0024,-0.002,-0.0016,0,0,0,0,0,0,0,0,0,0,0,0,0,-0.0332,-0.0384,-0.0323,-0.0279,-0.0274,-0.0236,-0.0235,-0.0233,-0.0166,-0.0166,-0.0165,-0.0164,-0.0025,-0.002,-0.0015,0.0002,0,0,0.0,0.0002,0,0,0,0,0,0,0,0,-0.0335,-0.033,-0.0286,-0.0282,-0.0276,-0.0213,-0.0204,-0.0152,-0.0166,-0.0205,-0.0165,-0.0164,-0.0083,-0.0073,-0.0056,0.0009,0.0015,0.0001,0.0004,0.0006,0.0007,0,0,0,0,0,0,0,-0.0339,-0.0333,-0.0286,-0.0285,-0.0279,-0.0248,-0.024,-0.0194,-0.0146,-0.0202,-0.0197,-0.0191,-0.008,-0.0061,-0.0052,0.0017,0.0,0.0005,0.0008,0.001,0.0121,0.0121,0,0,0,0,0,0,-0.0357,-0.0337,-0.0289,-0.0284,-0.0307,-0.0248,-0.0238,-0.0232,-0.0148,-0.0135,-0.0192,-0.0188,-0.007,-0.0058,-0.0047,-0.002,0.0006,0.0011,0.0013,0.0121,0.0121,0.0121,0,0,0,0,0,0,-0.0359,-0.0354,-0.0293,-0.031,-0.03,-0.0248,-0.0241,-0.0231,-0.0212,-0.0141,-0.0127,-0.0184,-0.0069,-0.0054,-0.0009,-0.0014,0.0013,0.0017,0.0121,0.0121,0.0121,0.0033,0,0,0,0,0,0,-0.0361,-0.0355,-0.0359,-0.0311,-0.03,-0.028,-0.0242,-0.023,-0.021,-0.0205,-0.013,-0.0116,-0.0068,-0.0017,-0.0004,-0.0006,0.0021,0.0121,0.0121,0.0121,0.0036,0.003,0.0025,0,0,0,0,0,-0.0363,-0.0377,-0.036,-0.0354,-0.0307,-0.0281,-0.0272,-0.0231,-0.0211,-0.021,-0.0156,-0.0118,-0.0009,-0.0013,0.0002,0.0001,0.0121,0.0121,0.0121,0.0039,0.0032,0.0025,0,0,0,0,0,0,-0.0405,-0.037,-0.035,-0.0352,-0.0323,-0.0271,-0.0268,-0.0238,-0.0196,-0.0189,-0.0119,-0.0102,-0.0065,-0.002,-0.0027,0.0033,0.0063,0.0065,-0.0005,-0.0011,-0.0017,-0.0032,0.0026,0,0,0,0,0,-0.0419,-0.0418,-0.0376,-0.0378,-0.0367,-0.0319,-0.0304,-0.0276,-0.0232,-0.0213,-0.0161,-0.0103,-0.0054,-0.0024,0.0022,0.0056,0.0105,0.0066,0.006,0.0055,0.0054,0.0124,0.0124,0.012,0.012,0.012,0,0,-0.0435,-0.0416,-0.0415,-0.0387,-0.0361,-0.0356,-0.0308,-0.0293,-0.0282,-0.0204,-0.0176,-0.0124,-0.0051,-0.0016,0.0005,0.0023,0.0081,0.0055,0.005,0.0051,0.0123,0.0124,0.0124,0.012,0.012,0.012,0,0,-0.0476,-0.0452,-0.0469,-0.0451,-0.0422,-0.0388,-0.0388,-0.0341,-0.0314,-0.0282,-0.0223,-0.0173,-0.0103,-0.005,-0.0013,-0.002,0.0045,-0.0007,-0.0042,0.0026,0.0026,0.0028,0.008,0.0087,-0.0005,-0.0005,-0.0005,0,-0.0499,-0.0511,-0.047,-0.0482,-0.0474,-0.0409,-0.0423,-0.0386,-0.033,-0.0307,-0.0286,-0.0175,-0.0118,-0.006,-0.0063,-0.0033,0.0011,-0.0026,0.0017,0.002,0.0023,0.0077,0.0085,-0.0009,-0.0009,-0.0009,-0.0008,0,-0.0551,-0.056,-0.0569,-0.0559,-0.0544,-0.0546,-0.0493,-0.0471,-0.0429,-0.0383,-0.0325,-0.0243,-0.0174,-0.0149,-0.0107,-0.0059,-0.0034,-0.0004,0.003,0.0018,0.0076,0.0086,-0.0016,-0.0014,-0.0013,-0.0012,0,0,-0.0606,-0.0607,-0.0612,-0.0625,-0.0586,-0.0583,-0.0562,-0.0522,-0.0512,-0.0437,-0.0405,-0.0317,-0.0263,-0.0218,-0.0152,-0.0092,-0.0039,-0.0048,-0.0042,-0.0005,0.0101,0.0159,0.0176,-0.0002,-0.0001,0.0,0.0129,0,-0.066,-0.0712,-0.0686,-0.0721,-0.0739,-0.0678,-0.0667,-0.0619,-0.0564,-0.0514,-0.0403,-0.0346,-0.029,-0.0255,-0.0188,-0.0071,-0.0013,-0.0077,0.0116,0.0121,0.0167,0.019,0.0227,0.0348,0.0139,0.0141,0.0142,0,-0.0722,-0.0747,-0.08,-0.0809,-0.0811,-0.0812,-0.0784,-0.0764,-0.0667,-0.0619,-0.0529,-0.0439,-0.0325,-0.028,-0.0091,-0.0134,-0.0031,0.0058,0.0066,0.0159,0.02,0.0331,0.0376,0.055,0.0159,0.0158,0.0157,0,-0.0791,-0.0826,-0.0875,-0.0878,-0.0873,-0.0876,-0.0859,-0.0795,-0.0779,-0.067,-0.0636,-0.0491,-0.0404,-0.0256,-0.0068,-0.0078,0.0142,0.0156,0.0304,0.0309,0.04,0.041,0.0631,0.0281,0.0281,0.028,0.028,0,-0.0862,-0.0899,-0.0914,-0.094,-0.0993,-0.095,-0.0972,-0.0933,-0.0863,-0.084,-0.0691,-0.0628,-0.0394,-0.0237,-0.0079,0.0155,0.014,0.0308,0.0354,0.0369,0.0375,0.0579,0.0642,0.0285,0.0284,0.0283,0.0282,0,-0.0931,-0.094,-0.1,-0.1019,-0.1029,-0.1062,-0.1051,-0.1059,-0.098,-0.094,-0.0901,-0.0709,-0.049,-0.026,0.0002,0.0147,0.0477,0.0437,0.0434,0.0479,0.0772,0.0826,0.1089,0.1202,0.0622,0.0624,0.0626,0,-0.0972,-0.101,-0.1072,-0.1112,-0.1122,-0.1155,-0.1176,-0.1122,-0.1114,-0.0991,-0.0968,-0.0747,-0.0572,-0.0153,0.0152,0.0462,0.059,0.0663,0.0656,0.0811,0.0906,0.0939,0.1017,0.0737,0.074,0.0742,0.0744,0,-0.1041,-0.1061,-0.1111,-0.1203,-0.1246,-0.1296,-0.1307,-0.1316,-0.124,-0.1175,-0.1037,-0.0882,-0.0459,-0.0056,0.0355,0.0532,0.0804,0.0718,0.0893,0.1033,0.1071,0.1194,0.0615,0.0764,0.0762,0.076,0.0759,0.0759,-0.1083,-0.1144,-0.1208,-0.1291,-0.1351,-0.1409,-0.1434,-0.1416,-0.1385,-0.1257,-0.1093,-0.0814,-0.0232,0.0376,0.0593,0.1049,0.0992,0.1167,0.1223,0.1246,0.1355,0.0812,0.1002,0.1002,0.1001,0.1001,0.1001,0,-0.1133,-0.1198,-0.1286,-0.1384,-0.1458,-0.1467,-0.1502,-0.1485,-0.1436,-0.1264,-0.1075,-0.0435,0.0141,0.0663,0.1317,0.1548,0.1595,0.1644,0.1706,0.1765,0.131,0.1315,0.1563,0.1563,0.1563,0.1563,0.1563,0.1563,-0.116,-0.1255,-0.1307,-0.1444,-0.1507,-0.157,-0.1582,-0.153,-0.1404,-0.1079,-0.0729,-0.0429,0.0325,0.1395,0.1986,0.2021,0.2219,0.2174,0.2294,0.1974,0.1933,0.1895,0.1917,0.2288,0.2288,0.2735,0.274,0.2743]}],[{"header":{"parameterUnit":"m.s-1","parameterCategory":2,"la1":30.2991,"la2":30.254,"lo1":-89.0895,"lo2":-89.0444,"dy":0.0017,"dx":0.0017,"nx":28,"ny":28,"refTime":"2023-08-30T21:00:00:Z","depth":"2","parameterNumber":2,"parameterNumberName":"U-component_of_CURRENTS"},"data":[0,0,0,0,0,0,0,0,0,0,0,0,0,0,0,0,0,0,0,0,0,0,0,0,0,0,0,0,0,0,0,0,0,0,0,0,0,0,0,0,0,0,0,0,0,0,0,0,0,0,0,0,0,0,0,0,0,0,-0.2654,-0.2654,0,-0.27,-0.27,-0.27,-0.2677,-0.2676,-0.2675,-0.2674,-0.2671,-0.2672,-0.2673,0,0,0,0,0,0,0,0,0,0,0,0,0,-0.256,-0.2562,-0.2654,-0.2655,-0.2655,-0.27,-0.27,-0.27,-0.2677,-0.2676,-0.2675,-0.2673,-0.2671,-0.2672,-0.2673,0,0,0,0,0,0,0,0,0,0,0,0,0,-0.26,-0.2562,-0.2654,-0.2651,-0.2651,-0.2699,-0.27,-0.27,-0.2677,-0.2676,-0.2674,-0.2673,-0.2671,-0.2672,-0.2673,-0.271,0,0,-0.2677,-0.2678,0,0,0,0,0,0,0,0,-0.2598,-0.2603,-0.2651,-0.2651,-0.2652,-0.2683,-0.2666,-0.2702,-0.2678,-0.2665,-0.2674,-0.2672,-0.2674,-0.2675,-0.2683,-0.271,-0.271,-0.2677,-0.2678,-0.2678,-0.2679,0,0,0,0,0,0,0,-0.2595,-0.2601,-0.2669,-0.2652,-0.2652,-0.2652,-0.2656,-0.2673,-0.2674,-0.2666,-0.2665,-0.2674,-0.2673,-0.2682,-0.2683,-0.271,-0.2677,-0.2678,-0.2679,-0.2679,-0.2771,-0.2773,0,0,0,0,0,0,-0.2596,-0.2599,-0.2668,-0.2671,-0.2624,-0.2655,-0.2659,-0.2672,-0.2675,-0.2675,-0.2676,-0.2673,-0.2681,-0.2682,-0.2683,-0.2731,-0.2678,-0.268,-0.268,-0.277,-0.2772,-0.2774,0,0,0,0,0,0,-0.2594,-0.2602,-0.2666,-0.2637,-0.2646,-0.2659,-0.2674,-0.2674,-0.268,-0.2683,-0.2681,-0.268,-0.268,-0.2681,-0.2704,-0.273,-0.268,-0.2681,-0.2768,-0.277,-0.2773,-0.2823,0,0,0,0,0,0,-0.2591,-0.2601,-0.2609,-0.2638,-0.2648,-0.27,-0.2675,-0.2676,-0.269,-0.2687,-0.2687,-0.2686,-0.2679,-0.2702,-0.2705,-0.2731,-0.2682,-0.2766,-0.2769,-0.2772,-0.282,-0.2827,-0.2834,0,0,0,0,0,-0.2588,-0.2605,-0.2609,-0.2617,-0.2659,-0.2701,-0.2706,-0.2708,-0.2691,-0.2705,-0.2704,-0.2685,-0.2724,-0.2705,-0.2708,-0.2734,-0.2764,-0.2768,-0.2772,-0.2816,-0.2826,-0.2834,0,0,0,0,0,0,-0.2566,-0.2606,-0.261,-0.2637,-0.267,-0.2698,-0.271,-0.2713,-0.2725,-0.2717,-0.2708,-0.2708,-0.2738,-0.2734,-0.2713,-0.2772,-0.2741,-0.2746,-0.2774,-0.2783,-0.279,-0.2782,-0.2683,0,0,0,0,0,-0.2568,-0.2589,-0.263,-0.2651,-0.2668,-0.2689,-0.2705,-0.2713,-0.273,-0.2732,-0.2734,-0.2741,-0.276,-0.2767,-0.2781,-0.2816,-0.2797,-0.2835,-0.2843,-0.2849,-0.2846,-0.2847,-0.2853,-0.2786,-0.2786,-0.2786,0,0,-0.2564,-0.259,-0.26,-0.2648,-0.2668,-0.2708,-0.2694,-0.2726,-0.2756,-0.2732,-0.2762,-0.2766,-0.2775,-0.2811,-0.2825,-0.2809,-0.286,-0.2853,-0.2858,-0.2852,-0.2851,-0.2857,-0.2863,-0.2789,-0.2788,-0.2788,0,0,-0.2576,-0.2593,-0.2619,-0.2653,-0.2696,-0.2719,-0.273,-0.2766,-0.2775,-0.2815,-0.2805,-0.2824,-0.2851,-0.2865,-0.2874,-0.2933,-0.2898,-0.2938,-0.2968,-0.297,-0.2975,-0.2979,-0.2965,-0.2967,-0.2942,-0.2942,-0.2942,0,-0.2569,-0.2607,-0.2633,-0.2674,-0.2699,-0.2725,-0.2762,-0.2792,-0.2829,-0.2842,-0.2829,-0.2873,-0.2879,-0.2923,-0.2942,-0.2948,-0.2933,-0.2932,-0.2977,-0.2981,-0.2984,-0.2969,-0.2971,-0.2945,-0.2945,-0.2944,-0.2944,0,-0.2606,-0.2638,-0.2657,-0.2715,-0.2751,-0.2785,-0.2835,-0.2866,-0.2877,-0.2901,-0.2939,-0.295,-0.2969,-0.2984,-0.2981,-0.3017,-0.2993,-0.2984,-0.2949,-0.2993,-0.2975,-0.2976,-0.2949,-0.2948,-0.2947,-0.2946,0,0,-0.2573,-0.2664,-0.2667,-0.2701,-0.2771,-0.2806,-0.2864,-0.2919,-0.2953,-0.2981,-0.3012,-0.3051,-0.3042,-0.3052,-0.3052,-0.3059,-0.3073,-0.3031,-0.303,-0.3008,-0.3061,-0.2963,-0.2954,-0.3065,-0.3066,-0.3066,-0.3039,0,-0.2586,-0.266,-0.2702,-0.2769,-0.281,-0.2857,-0.2913,-0.2969,-0.3004,-0.3045,-0.3058,-0.3089,-0.3074,-0.3081,-0.3088,-0.3079,-0.3078,-0.308,-0.303,-0.3029,-0.2928,-0.2953,-0.2732,-0.2681,-0.3039,-0.304,-0.304,0,-0.2592,-0.2647,-0.2709,-0.28,-0.2821,-0.2867,-0.2944,-0.2998,-0.3068,-0.3094,-0.312,-0.3128,-0.3151,-0.3125,-0.3121,-0.312,-0.3092,-0.3079,-0.3077,-0.2965,-0.2932,-0.2696,-0.2669,-0.3041,-0.3041,-0.3041,-0.3041,0,-0.2543,-0.2641,-0.2686,-0.2717,-0.283,-0.2862,-0.2917,-0.3001,-0.3042,-0.3112,-0.3137,-0.3167,-0.3172,-0.3154,-0.3121,-0.3122,-0.3098,-0.3097,-0.2983,-0.2975,-0.2765,-0.2738,-0.3084,-0.3084,-0.3084,-0.3084,-0.3085,0,-0.2528,-0.2562,-0.2667,-0.2695,-0.275,-0.284,-0.2896,-0.2961,-0.3043,-0.3076,-0.3142,-0.3159,-0.3177,-0.3164,-0.3131,-0.3048,-0.3101,-0.2983,-0.2961,-0.2777,-0.2753,-0.3048,-0.3044,-0.3083,-0.3084,-0.3084,-0.3084,0,-0.2457,-0.2527,-0.2582,-0.2696,-0.2724,-0.276,-0.2862,-0.2898,-0.3002,-0.3042,-0.3059,-0.3147,-0.3131,-0.3127,-0.3101,-0.3045,-0.299,-0.2944,-0.272,-0.2672,-0.2866,-0.2866,-0.2823,-0.2819,-0.2816,-0.2813,-0.2811,0,-0.2424,-0.2443,-0.2547,-0.2562,-0.2604,-0.2672,-0.2704,-0.2839,-0.2874,-0.3012,-0.3007,-0.3054,-0.3031,-0.2975,-0.2891,-0.2806,-0.2898,-0.2559,-0.2526,-0.2856,-0.284,-0.2844,-0.2848,-0.2271,-0.2264,-0.2259,-0.2255,0,-0.2339,-0.2369,-0.2406,-0.2451,-0.2482,-0.2533,-0.2596,-0.263,-0.277,-0.282,-0.2871,-0.2879,-0.2844,-0.2663,-0.2576,-0.25,-0.2558,-0.2449,-0.2841,-0.2376,-0.2334,-0.2319,-0.2341,-0.2208,-0.2213,-0.2216,-0.2219,-0.2221,-0.2237,-0.224,-0.2279,-0.2302,-0.2341,-0.2368,-0.2354,-0.243,-0.2475,-0.2502,-0.2627,-0.2557,-0.2544,-0.2295,-0.2176,-0.2088,-0.2271,-0.2164,-0.2181,-0.2203,-0.2149,-0.2104,-0.1924,-0.1927,-0.193,-0.1932,-0.1934,0,-0.2102,-0.2113,-0.2125,-0.215,-0.2125,-0.2206,-0.2241,-0.2195,-0.2172,-0.2223,-0.2222,-0.2014,-0.1894,-0.189,-0.1684,-0.1647,-0.1635,-0.1574,-0.1559,-0.1606,-0.1648,-0.1566,-0.1186,-0.1184,-0.1182,-0.118,0,0,-0.2023,-0.1984,-0.1997,-0.1913,-0.1923,-0.1844,-0.1829,-0.1785,-0.1779,-0.1707,-0.1662,-0.1779,-0.1832,-0.1507,-0.1433,-0.1276,-0.1426,-0.1209,-0.1809,-0.1837,-0.1876,-0.1987,-0.1914,0,0,0,0,0]},{"header":{"parameterUnit":"m.s-1","parameterCategory":2,"la1":30.2991,"la2":30.254,"lo1":-89.0895,"lo2":-89.0444,"dy":0.0017,"dx":0.0017,"nx":28,"ny":28,"refTime":"2023-08-30T21:00:00:Z","depth":"2","parameterNumber":3,"parameterNumberName":"V-component_of_CURRENTS"},"data":[0,0,0,0,0,0,0,0,0,0,0,0,0,0,0,0,0,0,0,0,0,0,0,0,0,0,0,0,0,0,0,0,0,0,0,0,0,0,0,0,0,0,0,0,0,0,0,0,0,0,0,0,0,0,0,0,0,0,-0.0201,-0.02,0,-0.0119,-0.0118,-0.0117,-0.0054,-0.0054,-0.0053,-0.0053,0.0084,0.0087,0.009,0,0,0,0,0,0,0,0,0,0,0,0,0,-0.0256,-0.0256,-0.0201,-0.02,-0.0199,-0.0119,-0.0118,-0.0116,-0.0054,-0.0054,-0.0053,-0.0053,0.0082,0.0086,0.009,0,0,0,0,0,0,0,0,0,0,0,0,0,-0.0207,-0.0256,-0.0201,-0.016,-0.0156,-0.0119,-0.0118,-0.0116,-0.0054,-0.0054,-0.0053,-0.0052,0.0081,0.0086,0.0091,0.0109,0,0,0.0106,0.0108,0,0,0,0,0,0,0,0,-0.021,-0.0205,-0.0167,-0.0163,-0.0158,-0.0098,-0.0087,-0.0039,-0.0054,-0.009,-0.0053,-0.0052,0.0026,0.0035,0.0052,0.0116,0.0122,0.0106,0.0109,0.0111,0.0113,0,0,0,0,0,0,0,-0.0214,-0.0208,-0.0166,-0.0166,-0.0161,-0.013,-0.0122,-0.0078,-0.0034,-0.0087,-0.0083,-0.0077,0.0029,0.0047,0.0056,0.0124,0.0106,0.011,0.0113,0.0115,0.0222,0.0222,0,0,0,0,0,0,-0.0231,-0.0212,-0.0169,-0.0164,-0.0186,-0.013,-0.0121,-0.0116,-0.0035,-0.0023,-0.0078,-0.0075,0.0038,0.005,0.0061,0.0085,0.0111,0.0116,0.0119,0.0222,0.0222,0.0222,0,0,0,0,0,0,-0.0233,-0.0228,-0.0172,-0.0187,-0.0178,-0.013,-0.0124,-0.0115,-0.0098,-0.0029,-0.0016,-0.0072,0.0039,0.0054,0.0096,0.0091,0.0118,0.0122,0.0222,0.0222,0.0222,0.0134,0,0,0,0,0,0,-0.0235,-0.0229,-0.0235,-0.0189,-0.0178,-0.0161,-0.0125,-0.0114,-0.0096,-0.0091,-0.0019,-0.0006,0.0041,0.0088,0.0101,0.0098,0.0126,0.0222,0.0222,0.0222,0.0137,0.0131,0.0126,0,0,0,0,0,-0.0237,-0.0251,-0.0235,-0.023,-0.0186,-0.0162,-0.0154,-0.0115,-0.0097,-0.0096,-0.0045,-0.0008,0.0096,0.0092,0.0107,0.0105,0.0222,0.0222,0.0222,0.014,0.0133,0.0126,0,0,0,0,0,0,-0.0277,-0.0244,-0.0227,-0.0229,-0.0202,-0.0152,-0.0151,-0.0123,-0.0083,-0.0077,-0.0009,0.0007,0.0041,0.0086,0.0079,0.0136,0.0165,0.0168,0.0098,0.0092,0.0086,0.0072,0.013,0,0,0,0,0,-0.029,-0.0291,-0.0252,-0.0254,-0.0245,-0.0199,-0.0185,-0.0159,-0.0118,-0.0099,-0.005,0.0005,0.0052,0.008,0.0125,0.0157,0.0206,0.0166,0.0161,0.0155,0.0154,0.0222,0.0222,0.0221,0.0221,0.0221,0,0,-0.0306,-0.0289,-0.0288,-0.0263,-0.0238,-0.0234,-0.0189,-0.0175,-0.0166,-0.0091,-0.0065,-0.0016,0.0055,0.0088,0.0108,0.0125,0.0179,0.0155,0.015,0.0152,0.0221,0.0222,0.0222,0.0221,0.0221,0.0221,0,0,-0.0346,-0.0324,-0.034,-0.0324,-0.0297,-0.0266,-0.0267,-0.0222,-0.0197,-0.0168,-0.0111,-0.0065,0.0002,0.0053,0.0088,0.008,0.0143,0.0092,0.0058,0.0122,0.0123,0.0124,0.0174,0.0181,0.0094,0.0094,0.0094,0,-0.0368,-0.038,-0.0341,-0.0353,-0.0346,-0.0286,-0.03,-0.0265,-0.0213,-0.0192,-0.0173,-0.0067,-0.0013,0.0042,0.0038,0.0067,0.0109,0.0075,0.0114,0.0116,0.0119,0.0171,0.0179,0.009,0.009,0.0091,0.0091,0,-0.0417,-0.0426,-0.0435,-0.0427,-0.0413,-0.0415,-0.0366,-0.0347,-0.0309,-0.0266,-0.0212,-0.0134,-0.0069,-0.0046,-0.0006,0.0039,0.0064,0.0093,0.0127,0.0114,0.0169,0.0179,0.0084,0.0085,0.0086,0.0087,0,0,-0.047,-0.0471,-0.0476,-0.0489,-0.0454,-0.0451,-0.0432,-0.0396,-0.0387,-0.0319,-0.0288,-0.0206,-0.0157,-0.0114,-0.0051,0.0006,0.0056,0.0049,0.0055,0.009,0.0189,0.0238,0.0255,0.0091,0.0093,0.0094,0.0216,0,-0.0522,-0.057,-0.0546,-0.058,-0.0597,-0.0541,-0.0532,-0.0488,-0.0437,-0.0391,-0.0288,-0.0235,-0.0182,-0.0151,-0.0087,0.0025,0.008,0.0019,0.0205,0.0211,0.0249,0.0267,0.022,0.0328,0.0226,0.0228,0.0229,0,-0.0581,-0.0604,-0.0654,-0.0662,-0.0664,-0.0667,-0.0642,-0.0625,-0.0535,-0.0491,-0.0408,-0.0324,-0.0217,-0.0175,0.0005,-0.0036,0.0063,0.0148,0.0155,0.0241,0.0279,0.0329,0.0351,0.0246,0.0245,0.0244,0.0243,0,-0.0647,-0.0679,-0.0725,-0.0729,-0.0724,-0.0729,-0.0714,-0.0656,-0.0641,-0.0541,-0.051,-0.0373,-0.0293,-0.0152,0.0026,0.0017,0.0226,0.0241,0.0377,0.0382,0.04,0.0403,0.0361,0.0361,0.0361,0.036,0.036,0,-0.0713,-0.0749,-0.0763,-0.0788,-0.0839,-0.0799,-0.0822,-0.0787,-0.0722,-0.0702,-0.0563,-0.0505,-0.0283,-0.0134,0.0015,0.0235,0.0224,0.038,0.0424,0.0367,0.0367,0.0344,0.034,0.0365,0.0364,0.0363,0.0362,0,-0.0779,-0.0788,-0.0845,-0.0863,-0.0873,-0.0906,-0.0898,-0.0907,-0.0834,-0.0798,-0.0763,-0.0583,-0.0378,-0.016,0.009,0.0227,0.0425,0.05,0.0415,0.0448,0.0535,0.0525,0.0665,0.0668,0.067,0.0672,0.0674,0,-0.082,-0.0855,-0.0914,-0.0953,-0.0964,-0.0997,-0.1018,-0.0968,-0.0961,-0.0847,-0.0826,-0.062,-0.0458,-0.0063,0.0213,0.0502,0.0496,0.0621,0.0604,0.0541,0.057,0.0556,0.0543,0.0586,0.0587,0.0587,0.0588,0,-0.0886,-0.0906,-0.0953,-0.1041,-0.1084,-0.1131,-0.1143,-0.1151,-0.108,-0.1021,-0.0893,-0.0749,-0.0365,-0.0029,0.0352,0.0504,0.0574,0.0646,0.0621,0.0517,0.0477,0.0502,0.049,0.0594,0.0594,0.0593,0.0593,0.0593,-0.0929,-0.0986,-0.1047,-0.1126,-0.1184,-0.1238,-0.126,-0.1241,-0.1212,-0.1088,-0.0944,-0.0689,-0.0366,0.0191,0.0446,0.0678,0.0674,0.073,0.0723,0.0716,0.0686,0.0654,0.0797,0.0797,0.0798,0.0798,0.0799,0,-0.0979,-0.104,-0.1123,-0.1214,-0.1284,-0.1295,-0.1326,-0.1302,-0.1253,-0.1092,-0.0918,-0.0539,-0.0158,0.0168,0.0549,0.0781,0.0739,0.0803,0.0705,0.0698,0.0691,0.0656,0.0761,0.0762,0.0762,0.0763,0,0,-0.1006,-0.1096,-0.1142,-0.127,-0.1331,-0.139,-0.1401,-0.1334,-0.1212,-0.1025,-0.0822,-0.0534,-0.0138,0.0133,0.0412,0.0601,0.0583,0.0606,0.061,0.0453,0.0444,0.0624,0.056,0,0,0,0,0]}],[{"header":{"parameterUnit":"m.s-1","parameterCategory":2,"la1":30.2991,"la2":30.254,"lo1":-89.0895,"lo2":-89.0444,"dy":0.0017,"dx":0.0017,"nx":28,"ny":28,"refTime":"2023-08-30T21:00:00:Z","depth":"4","parameterNumber":2,"parameterNumberName":"U-component_of_CURRENTS"},"data":[0,0,0,0,0,0,0,0,0,0,0,0,0,0,0,0,0,0,0,0,0,0,0,0,0,0,0,0,0,0,0,0,0,0,0,0,0,0,0,0,0,0,0,0,0,0,0,0,0,0,0,0,0,0,0,0,0,0,-0.189,-0.1892,0,-0.1974,-0.1975,-0.1975,-0.202,-0.202,-0.2021,-0.2021,-0.2091,-0.2092,-0.2094,0,0,0,0,0,0,0,0,0,0,0,0,0,-0.1774,-0.1775,-0.189,-0.1892,-0.1893,-0.1974,-0.1975,-0.1976,-0.202,-0.202,-0.2021,-0.2021,-0.209,-0.2092,-0.2094,0,0,0,0,0,0,0,0,0,0,0,0,0,-0.1835,-0.1776,-0.189,-0.1926,-0.1931,-0.1974,-0.1975,-0.1976,-0.202,-0.202,-0.2021,-0.2021,-0.209,-0.2092,-0.2094,-0.21,0,0,-0.2101,-0.2102,0,0,0,0,0,0,0,0,-0.1832,-0.1839,-0.192,-0.1924,-0.1929,-0.1989,-0.1959,-0.2018,-0.202,-0.1984,-0.2021,-0.2021,-0.2057,-0.2062,-0.2073,-0.2103,-0.2106,-0.2102,-0.2103,-0.2104,-0.2105,0,0,0,0,0,0,0,-0.1827,-0.1836,-0.1921,-0.1921,-0.1927,-0.194,-0.1949,-0.197,-0.2015,-0.1987,-0.1991,-0.2003,-0.2059,-0.2071,-0.2075,-0.2107,-0.2102,-0.2104,-0.2105,-0.2106,-0.2237,-0.2239,0,0,0,0,0,0,-0.1821,-0.1832,-0.1919,-0.1924,-0.1883,-0.1942,-0.1952,-0.1967,-0.2015,-0.2023,-0.2003,-0.2005,-0.2067,-0.2072,-0.2078,-0.2171,-0.2104,-0.2106,-0.2108,-0.2235,-0.2238,-0.224,0,0,0,0,0,0,-0.1818,-0.1828,-0.1915,-0.1881,-0.1894,-0.1944,-0.1961,-0.1969,-0.2013,-0.2028,-0.2035,-0.2042,-0.2067,-0.2075,-0.213,-0.2171,-0.2107,-0.211,-0.2233,-0.2236,-0.2239,-0.2304,0,0,0,0,0,0,-0.1815,-0.1827,-0.1851,-0.1881,-0.1895,-0.1964,-0.1961,-0.197,-0.2019,-0.2024,-0.2063,-0.2068,-0.2068,-0.2127,-0.2133,-0.2173,-0.2111,-0.223,-0.2234,-0.2238,-0.2299,-0.2309,-0.2317,0,0,0,0,0,-0.181,-0.1836,-0.1852,-0.1863,-0.1922,-0.1966,-0.1975,-0.2009,-0.2021,-0.2049,-0.2079,-0.2069,-0.2155,-0.2131,-0.2137,-0.2179,-0.2229,-0.2233,-0.2238,-0.2295,-0.2307,-0.2317,0,0,0,0,0,0,-0.18,-0.1844,-0.1862,-0.1902,-0.1943,-0.1975,-0.2008,-0.2028,-0.2074,-0.2087,-0.2095,-0.2103,-0.2166,-0.2166,-0.2138,-0.2229,-0.2191,-0.2197,-0.2232,-0.2243,-0.2252,-0.224,-0.2113,0,0,0,0,0,-0.1809,-0.1842,-0.1883,-0.1919,-0.1942,-0.1981,-0.2009,-0.2035,-0.2071,-0.2094,-0.2122,-0.2154,-0.2185,-0.221,-0.2234,-0.2285,-0.2263,-0.2317,-0.2326,-0.2334,-0.233,-0.2334,-0.2342,-0.2255,-0.2255,-0.2255,0,0,-0.1816,-0.1845,-0.1866,-0.192,-0.1954,-0.1998,-0.1999,-0.2054,-0.2097,-0.2093,-0.2168,-0.2188,-0.2205,-0.2263,-0.2291,-0.2272,-0.2349,-0.234,-0.2346,-0.2337,-0.2339,-0.2347,-0.2354,-0.2259,-0.2258,-0.2258,0,0,-0.1837,-0.1874,-0.1907,-0.1945,-0.2006,-0.2032,-0.2055,-0.2109,-0.2145,-0.2211,-0.2219,-0.2265,-0.2319,-0.2338,-0.2352,-0.2426,-0.2395,-0.2443,-0.2482,-0.2487,-0.2493,-0.2499,-0.2484,-0.2487,-0.245,-0.245,-0.245,0,-0.1847,-0.189,-0.1925,-0.1967,-0.2004,-0.205,-0.2095,-0.214,-0.2209,-0.2238,-0.2248,-0.2331,-0.2352,-0.2406,-0.2436,-0.2446,-0.2434,-0.2438,-0.2496,-0.2501,-0.2505,-0.2489,-0.2492,-0.2454,-0.2453,-0.2453,-0.2452,0,-0.1882,-0.1932,-0.1957,-0.2023,-0.2068,-0.2117,-0.2176,-0.2232,-0.2279,-0.2315,-0.239,-0.242,-0.2461,-0.2486,-0.2487,-0.2538,-0.2514,-0.2503,-0.2462,-0.2518,-0.2497,-0.2499,-0.2459,-0.2458,-0.2456,-0.2456,0,0,-0.1857,-0.1961,-0.1972,-0.2015,-0.2102,-0.214,-0.2219,-0.2291,-0.2344,-0.2411,-0.2464,-0.2531,-0.2542,-0.2558,-0.2569,-0.2584,-0.2612,-0.2564,-0.2562,-0.2537,-0.261,-0.2431,-0.2415,-0.2611,-0.2612,-0.2612,-0.2583,0,-0.1875,-0.1955,-0.2004,-0.209,-0.2136,-0.2204,-0.2272,-0.2347,-0.2409,-0.2475,-0.2512,-0.257,-0.2571,-0.2598,-0.2615,-0.2614,-0.262,-0.262,-0.257,-0.2568,-0.2392,-0.2412,-0.2615,-0.2584,-0.2585,-0.2585,-0.2585,0,-0.1878,-0.1937,-0.2019,-0.2126,-0.2153,-0.2216,-0.2322,-0.2386,-0.248,-0.2529,-0.2584,-0.2611,-0.2656,-0.2643,-0.2658,-0.2658,-0.264,-0.263,-0.2629,-0.2434,-0.2391,-0.2519,-0.2588,-0.2587,-0.2587,-0.2587,-0.2587,0,-0.1823,-0.1939,-0.2005,-0.2044,-0.2173,-0.223,-0.2299,-0.2404,-0.2455,-0.2558,-0.2595,-0.2652,-0.2677,-0.2675,-0.2658,-0.2666,-0.2647,-0.265,-0.2469,-0.2456,-0.2599,-0.2593,-0.2648,-0.2648,-0.2648,-0.2648,-0.2648,0,-0.1797,-0.1855,-0.1995,-0.2033,-0.2115,-0.2215,-0.2301,-0.238,-0.2479,-0.2517,-0.2612,-0.2629,-0.2688,-0.2682,-0.2663,-0.2551,-0.2647,-0.2462,-0.2432,-0.2628,-0.2626,-0.2599,-0.2594,-0.2647,-0.2647,-0.2647,-0.2647,0,-0.1717,-0.1811,-0.1895,-0.2045,-0.2091,-0.2148,-0.2284,-0.2329,-0.245,-0.2496,-0.2524,-0.2618,-0.2601,-0.2622,-0.2611,-0.2529,-0.2463,-0.2401,-0.2596,-0.258,-0.2272,-0.2271,-0.2194,-0.2187,-0.2181,-0.2176,-0.2172,0,-0.1679,-0.1716,-0.1877,-0.1916,-0.1988,-0.209,-0.214,-0.2288,-0.232,-0.2452,-0.2439,-0.2491,-0.2521,-0.2355,-0.2409,-0.2338,-0.2315,-0.2268,-0.228,-0.2244,-0.2224,-0.2232,-0.2239,-0.2163,-0.2162,-0.216,-0.2159,0,-0.1594,-0.1664,-0.1729,-0.1816,-0.1887,-0.1953,-0.2038,-0.2052,-0.2188,-0.2316,-0.2283,-0.2269,-0.2244,-0.2224,-0.2178,-0.2136,-0.2293,-0.2209,-0.2221,-0.2232,-0.2207,-0.2194,-0.2207,-0.2139,-0.2142,-0.2144,-0.2145,0,-0.1517,-0.1539,-0.1626,-0.1681,-0.1762,-0.1782,-0.1858,-0.1883,-0.1938,-0.2083,-0.206,-0.2121,-0.2208,-0.2117,-0.2076,-0.2013,-0.1991,-0.1931,-0.1958,-0.198,-0.1922,-0.186,-0.1644,0,0,0,0,0,-0.143,-0.1433,-0.1476,-0.1532,-0.1605,-0.165,-0.1761,-0.1837,-0.197,-0.1881,-0.1967,-0.1931,-0.1883,-0.1924,-0.1812,-0.1984,-0.2004,-0.1847,-0.1952,-0.203,-0.2053,-0.2004,0,0,0,0,0,0,-0.1367,-0.1406,-0.1424,-0.1386,-0.1389,-0.1451,-0.1517,-0.1615,-0.1579,-0.1719,-0.1697,-0.1797,-0.1776,-0.1899,-0.1764,-0.1772,-0.1795,-0.1892,-0.1887,-0.2017,-0.2038,-0.2056,-0.2014,0,0,0,0,0]},{"header":{"parameterUnit":"m.s-1","parameterCategory":2,"la1":30.2991,"la2":30.254,"lo1":-89.0895,"lo2":-89.0444,"dy":0.0017,"dx":0.0017,"nx":28,"ny":28,"refTime":"2023-08-30T21:00:00:Z","depth":"4","parameterNumber":3,"parameterNumberName":"V-component_of_CURRENTS"},"data":[0,0,0,0,0,0,0,0,0,0,0,0,0,0,0,0,0,0,0,0,0,0,0,0,0,0,0,0,0,0,0,0,0,0,0,0,0,0,0,0,0,0,0,0,0,0,0,0,0,0,0,0,0,0,0,0,0,0,-0.01,-0.01,0,-0.0046,-0.0045,-0.0045,0.0002,0.0002,0.0002,0.0002,0.011,0.0113,0.0115,0,0,0,0,0,0,0,0,0,0,0,0,0,-0.0127,-0.0127,-0.01,-0.01,-0.0099,-0.0046,-0.0045,-0.0044,0.0001,0.0002,0.0002,0.0003,0.0109,0.0112,0.0115,0,0,0,0,0,0,0,0,0,0,0,0,0,-0.0097,-0.0127,-0.01,-0.0072,-0.0069,-0.0046,-0.0045,-0.0044,0.0001,0.0002,0.0002,0.0003,0.0108,0.0112,0.0116,0.013,0,0,0.0128,0.0129,0,0,0,0,0,0,0,0,-0.0099,-0.0096,-0.0076,-0.0074,-0.007,-0.003,-0.0015,0.0016,0.0001,-0.0023,0.0002,0.0003,0.0066,0.0074,0.0085,0.0135,0.014,0.0128,0.013,0.0132,0.0133,0,0,0,0,0,0,0,-0.0101,-0.0098,-0.0077,-0.0076,-0.0072,-0.0049,-0.0044,-0.0009,0.0021,-0.0021,-0.0018,-0.0015,0.0069,0.0081,0.0088,0.0142,0.0128,0.0131,0.0134,0.0135,0.0219,0.0219,0,0,0,0,0,0,-0.0114,-0.01,-0.0078,-0.0075,-0.0086,-0.0049,-0.0044,-0.0042,0.002,0.0028,-0.0016,-0.0013,0.0074,0.0084,0.0092,0.0108,0.0132,0.0136,0.0138,0.0219,0.0219,0.0219,0,0,0,0,0,0,-0.0115,-0.0113,-0.0081,-0.0088,-0.0082,-0.005,-0.0048,-0.0041,-0.003,0.0022,0.0033,-0.0012,0.0075,0.0087,0.0119,0.0113,0.0137,0.0141,0.0219,0.0219,0.0219,0.0143,0,0,0,0,0,0,-0.0116,-0.0114,-0.012,-0.0089,-0.0083,-0.0076,-0.0048,-0.0041,-0.003,-0.0026,0.003,0.004,0.0076,0.0113,0.0123,0.0119,0.0144,0.0219,0.0219,0.0219,0.0146,0.014,0.0136,0,0,0,0,0,-0.0117,-0.013,-0.012,-0.0118,-0.0091,-0.0077,-0.0071,-0.0045,-0.003,-0.0031,0.0008,0.0038,0.0119,0.0116,0.0128,0.0124,0.0219,0.0219,0.0219,0.0148,0.0141,0.0136,0,0,0,0,0,0,-0.0145,-0.0126,-0.0114,-0.012,-0.0104,-0.007,-0.0071,-0.0051,-0.0021,-0.0016,0.0037,0.0049,0.0075,0.0111,0.0106,0.0149,0.0174,0.0176,0.0117,0.0111,0.0106,0.0096,0.0147,0,0,0,0,0,-0.0155,-0.0159,-0.0134,-0.014,-0.0135,-0.0103,-0.0095,-0.0077,-0.0047,-0.0034,0.0004,0.0047,0.0083,0.0105,0.014,0.0164,0.0204,0.0171,0.0166,0.0161,0.0161,0.0217,0.0216,0.0218,0.0218,0.0218,0,0,-0.0167,-0.0158,-0.0159,-0.0146,-0.0131,-0.0131,-0.0097,-0.009,-0.0086,-0.0026,-0.001,0.0029,0.0084,0.0108,0.0124,0.0138,0.018,0.0161,0.0156,0.0159,0.0216,0.0216,0.0216,0.0218,0.0218,0.0218,0,0,-0.0197,-0.0186,-0.02,-0.0191,-0.0177,-0.0156,-0.0158,-0.0128,-0.0111,-0.0092,-0.0047,-0.0013,0.0038,0.0077,0.0104,0.0096,0.0149,0.0107,0.0078,0.013,0.0131,0.0132,0.017,0.0175,0.0108,0.0108,0.0108,0,-0.0213,-0.0227,-0.0202,-0.0214,-0.0213,-0.0172,-0.0186,-0.0163,-0.0126,-0.0112,-0.0097,-0.0018,0.0024,0.0065,0.0061,0.0084,0.012,0.0092,0.0123,0.0125,0.0127,0.0167,0.0173,0.0104,0.0104,0.0105,0.0105,0,-0.0251,-0.0263,-0.0272,-0.0272,-0.0266,-0.0272,-0.0241,-0.0231,-0.0205,-0.0175,-0.0136,-0.0076,-0.0027,-0.001,0.0023,0.0059,0.008,0.0106,0.0134,0.0122,0.0165,0.0173,0.0099,0.01,0.0101,0.0102,0,0,-0.0287,-0.0298,-0.0303,-0.0317,-0.03,-0.0302,-0.0295,-0.0275,-0.0273,-0.0223,-0.0204,-0.0141,-0.0102,-0.0068,-0.0018,0.0029,0.0068,0.0068,0.0073,0.0099,0.0178,0.0171,0.0179,0.01,0.0101,0.0102,0.0197,0,-0.0325,-0.0368,-0.0357,-0.0391,-0.0408,-0.0375,-0.0376,-0.0349,-0.0316,-0.0287,-0.0208,-0.017,-0.0125,-0.0102,-0.0048,0.0044,0.0088,0.004,0.0193,0.0198,0.0186,0.0188,0.0106,0.0203,0.0205,0.0207,0.0208,0,-0.0367,-0.0391,-0.0438,-0.0457,-0.0462,-0.0472,-0.0468,-0.0461,-0.0402,-0.037,-0.0309,-0.0245,-0.0161,-0.0124,0.0024,-0.0008,0.0074,0.0144,0.015,0.0177,0.0205,0.0224,0.0223,0.0222,0.0221,0.022,0.0219,0,-0.0409,-0.0447,-0.049,-0.0497,-0.0509,-0.0523,-0.0521,-0.0488,-0.0483,-0.0415,-0.0394,-0.0287,-0.0226,-0.0108,0.0036,0.0033,0.02,0.0217,0.0287,0.0288,0.0299,0.0298,0.0316,0.0316,0.0316,0.0315,0.0315,0,-0.0451,-0.0486,-0.0518,-0.0541,-0.0595,-0.0576,-0.0608,-0.059,-0.0551,-0.0541,-0.0439,-0.0396,-0.0218,-0.0101,0.0025,0.018,0.0194,0.0283,0.0314,0.0263,0.0257,0.0304,0.0301,0.0319,0.0318,0.0318,0.0317,0,-0.0486,-0.0507,-0.0564,-0.0599,-0.0618,-0.0653,-0.0672,-0.0685,-0.0641,-0.0621,-0.0596,-0.0462,-0.0306,-0.0135,0.0069,0.016,0.0312,0.0362,0.0286,0.0311,0.0365,0.0358,0.0446,0.0446,0.0447,0.0447,0.0447,0,-0.0508,-0.054,-0.0616,-0.0658,-0.0679,-0.0725,-0.0754,-0.0733,-0.0733,-0.0661,-0.0644,-0.0497,-0.0391,-0.0104,0.0069,0.0307,0.0339,0.0407,0.0392,0.0358,0.038,0.0372,0.0364,0.0448,0.0448,0.0449,0.0449,0,-0.0542,-0.0574,-0.062,-0.0711,-0.0764,-0.0817,-0.0845,-0.0848,-0.081,-0.0781,-0.0663,-0.0507,-0.0329,-0.0104,0.0082,0.025,0.0358,0.0413,0.0413,0.0399,0.0363,0.0382,0.0374,0.045,0.045,0.045,0.045,0,-0.0566,-0.0613,-0.0678,-0.0753,-0.0828,-0.0875,-0.0888,-0.0863,-0.085,-0.0757,-0.072,-0.0516,-0.0393,-0.0134,0.0036,0.0203,0.0242,0.0285,0.0292,0.0292,0.0219,0.0148,0.0197,0,0,0,0,0,-0.0582,-0.0634,-0.071,-0.0791,-0.0864,-0.0902,-0.0933,-0.0927,-0.0894,-0.0817,-0.0761,-0.059,-0.0312,-0.0184,-0.0017,0.0031,0.0254,0.0228,0.0303,0.046,0.0458,0.0397,0,0,0,0,0,0,-0.0595,-0.067,-0.0711,-0.0802,-0.0857,-0.0929,-0.0948,-0.0928,-0.0866,-0.0809,-0.0652,-0.0565,-0.0289,-0.0407,-0.0018,0.0032,0.0098,0.0363,0.0366,0.0461,0.0459,0.0458,0.0394,0,0,0,0,0]}]]